This demonstration page uses our WeatherBlox Daily Observations layout. Learn more.

Left ArrowRight Arrow

Hourly Observations for October 18, 2021

Temp ( °F °C ) Dew Point ( °F °C ) Humidity (%) Winds ( mph kmh ) Pressure ( in mb ) Visibility ( mi km ) Precip ( " mm )
12:51 am 00:51 Clear 57 13.9 38 3.3 49 49 E 3 6 29.87 1012 10 16 N/A
1:51 am 01:51 Clear 58 14.4 38 3.3 48 48 E 3 6 29.86 1011 10 16 N/A
2:51 am 02:51 Clear 53 11.7 38 3.3 57 57 N N/A 29.86 1011 10 16 N/A
3:51 am 03:51 Clear 53 11.7 39 3.9 59 59 ESE 3 6 29.85 1011 10 16 N/A
4:51 am 04:51 Clear 49 9.4 38 3.3 66 66 N N/A 29.86 1011 10 16 N/A
5:51 am 05:51 Clear 49 9.4 38 3.3 66 66 N N/A 29.87 1012 10 16 N/A
6:51 am 06:51 Sunny 51 10.6 38 3.3 61 61 ENE 3 6 29.88 1012 10 16 N/A
7:51 am 07:51 Sunny 59 15 39 3.9 48 48 N N/A 29.89 1012 10 16 N/A
8:51 am 08:51 Sunny 66 18.9 39 3.9 37 37 N N/A 29.89 1012 10 16 N/A
9:51 am 09:51 Sunny 73 22.8 37 2.8 27 27 undefined N/A 29.87 1012 10 16 N/A
10:51 am 10:51 Sunny 74 23.3 39 3.9 28 28 SSW 5 7 29.85 1011 10 16 N/A
11:51 am 11:51 Sunny 78 25.6 40 4.4 26 26 undefined N/A 29.81 1010 10 16 N/A
12:51 pm 12:51 Sunny 79 26.1 40 4.4 25 25 SW 6 9 29.78 1008 10 16 N/A
1:51 pm 13:51 Sunny 81 27.2 40 4.4 23 23 VRB 5 7 29.73 1007 10 16 N/A
2:51 pm 14:51 Sunny 82 27.8 37 2.8 20 20 VRB 5 7 29.73 1007 10 16 N/A
3:51 pm 15:51 Sunny 83 28.3 37 2.8 19 19 NW 12 19 29.72 1006 10 16 N/A
4:51 pm 16:51 Sunny 81 27.2 38 3.3 21 21 WNW 10 17 29.71 1006 10 16 N/A
5:51 pm 17:51 Clear 76 24.4 39 3.9 26 26 W 8 13 29.72 1007 10 16 N/A
6:51 pm 18:51 Clear 71 21.7 40 4.4 32 32 WNW 9 15 29.75 1008 10 16 N/A
7:51 pm 19:51 Clear 67 19.4 40 4.4 37 37 WNW 7 11 29.77 1008 10 16 N/A
8:51 pm 20:51 Clear 68 20 45 7.2 44 44 WNW 9 15 29.78 1008 10 16 N/A
9:51 pm 21:51 Clear 65 18.3 47 8.3 52 52 NNW 6 9 29.79 1009 10 16 N/A
10:51 pm 22:51 Clear 65 18.3 48 8.9 54 54 NW 6 9 29.80 1009 10 16 N/A
11:51 pm 23:51 Clear 63 17.2 48 8.9 58 58 WNW 6 9 29.80 1009 10 16 N/A

Powered by AerisWeather